Simultaneous Nadir Overpasses (SNOs) Predictions

Prediction of SNOs between GOES-16 and NOAA-19 Satellite Orbit:

Table of predicted SNOs for the next 14.0 days since TLE Epoch: 2/21/2025
Index Date Time (GOES-16) GOES-16 Lat,Lon NOAA-19 Lat,Lon Distance(km) Time Diff (sec)
1 02/22/2025 14:59:16 0.02, -75.22 0.96, -79.43 480.05 80
2 02/23/2025 14:46:42 0.02, -75.22 0.29, -76.37 132.04 80
3 02/24/2025 14:31:30 0.02, -75.22 -0.44, -73.33 216.20 80
4 02/27/2025 02:52:56 -0.03, -75.20 -0.63, -77.81 297.51 80
5 02/28/2025 02:37:43 -0.03, -75.21 0.07, -74.76 51.30 80
6 03/01/2025 02:25:10 -0.03, -75.21 0.76, -71.70 400.28 80
7 03/02/2025 14:56:32 0.03, -75.27 0.93, -79.25 453.95 80
8 03/03/2025 14:43:58 0.03, -75.28 0.23, -76.20 104.68 80
9 03/04/2025 14:34:05 0.03, -75.29 -0.47, -73.15 244.65 80
10 03/07/2025 02:52:51 -0.02, -75.29 -0.57, -77.62 266.42 80
